Location: Nairn
(57.5833°N, 3.8667°W)
Time: 02:34:38
(UTC+00:00)

Transit 2A - Pass Details

Date: 30 November 2020
Orbit: 598 x 960 km, 66.7° (Epoch: 20 January)

Event Time Altitude Azimuth Distance (km) Brightness Sun altitude
Rises 19:59:58 0° 257° (WSW) 3,587 10.3 -33.6°
Reaches altitude 10° 20:02:43 10° 264° (W) 2,609 9.5 -34.0°
Enters shadow 20:07:43 42° 314° (NW) 1,238 7.3 -34.7°
